Flag for Germany Weather past 2 weeks in Emmendingen, Baden-Württemberg, Germany

Now
46 °F

Passing clouds.


Feels Like: 46 °F
Forecast: 48 / 73 °F
Wind: 1 mph from North

Location: Lahr

Current Time: May 23, 2015 at 5:37:44 AM

Latest Report: May 23, 2015 at 5:00 AM


Visibility: 16 mi

Pressure: 30.13 "Hg

Humidity: 87%

Dew point: 42 °F

Location of EmmendingenLocation

Historic Weather in Emmendingen — Graph

°F

Emmendingen temperature yesterday

Maximum temperature yesterday: 67 °F (at 4:00 PM)
Minimum temperature yesterday: 39 °F (at 6:00 AM)
Average temperature yesterday: 54 °F

Past Weeks' High & Low Weather Summary

 TemperatureHumidityPressure
High86 °F (May 12, 4:00 PM)100% (May 16, 5:00 AM)30.37 "Hg (May 16, 5:00 AM)
Low39 °F (May 22, 6:00 AM)28% (May 8, 2:00 PM)29.72 "Hg (May 18, 8:00 PM)
Average59 °F69%30.10 "Hg
* Reported May 8 4:00 AM — May 23 4:00 AM, Emmendingen, Weather by CustomWeather, © 2015

Note: Actual official high and low records may vary slightly from our data, if they occured in-between our weather recording intervals... More about our weather records

Advertising

Emmendingen weather history for previous 24 hours

 ConditionsComfort  
Time TempWeatherWind HumidityBarometerVisibility
4:00 AM
Sat, May 23
47 °FPassing clouds.1 mph86%30.14 "Hg16 mi
3:00 AM47 °FClear.No wind86%30.14 "Hg19 mi
2:00 AM47 °FPassing clouds.1 mph86%30.16 "Hg18 mi
1:00 AM50 °FPassing clouds.1 mph87%30.17 "Hg16 mi
12:00 AM51 °FClear.1 mph75%30.17 "Hg25 mi
11:00 PM
Fri, May 22
53 °FClear.1 mph69%30.18 "Hg28 mi
10:00 PM56 °FClear.2 mph63%30.18 "Hg31 mi
9:00 PM58 °FSunny.5 mph52%30.17 "Hg43 mi
8:00 PM64 °FPassing clouds.8 mph39%30.16 "Hg1 mi
7:00 PM65 °FSunny.8 mph37%30.15 "Hg25 mi
6:00 PM67 °FSunny.8 mph38%30.16 "Hg15 mi
5:00 PM67 °FPassing clouds.9 mph34%30.17 "Hg37 mi
4:00 PM67 °FPassing clouds.7 mph37%30.19 "Hg37 mi
3:00 PM66 °FPassing clouds.8 mph39%30.21 "Hg37 mi
2:00 PM65 °FPassing clouds.7 mph39%30.23 "Hg34 mi
1:00 PM65 °FPassing clouds.6 mph44%30.26 "Hg34 mi
12:00 PM62 °FPassing clouds.5 mph50%30.28 "Hg31 mi
11:00 AM59 °FPassing clouds.3 mph52%30.30 "Hg34 mi
10:00 AM54 °FPassing clouds.3 mph66%30.32 "Hg34 mi
9:00 AM51 °FSunny.1 mph74%30.34 "Hg37 mi
8:00 AM46 °FSunny.1 mph81%30.34 "Hg37 mi
7:00 AM42 °FSunny.1 mph89%30.34 "Hg37 mi
6:00 AM39 °FFog.1 mph98%30.34 "Hg40 mi
5:00 AM40 °FClear.1 mph97%30.34 "Hg5 mi
Weather by CustomWeather, © 2015

See weather overviewHow to use our weather pages